• In Portugal
  • List of Countries
  • For 7 days
  • Water Temperature
  • Satellite Maps
  • Weather Map
  • Weather Widgets
  • user-avatar
    Login

    Hourly Weather Lubomin

    Today, 26 September, Wednesday

    Time Temperature Precipitation Wind Pressure Humidity
    00:00 +4°C° 0 mm 2 mps 737 mmHg 74%
    01:00 +4°C° 0 mm 1 mps 737 mmHg 73%
    02:00 +3°C° 0 mm 2 mps 737 mmHg 73%
    03:00 +3°C° 0 mm 2 mps 736 mmHg 74%
    04:00 +3°C° 0 mm 2 mps 736 mmHg 74%
    05:00 +3°C° 0 mm 2 mps 736 mmHg 73%
    06:00 +4°C° 0 mm 2 mps 736 mmHg 71%
    07:00 +4°C° 0 mm 2 mps 736 mmHg 70%
    08:00 +5°C° 0 mm 3 mps 736 mmHg 63%
    09:00 +8°C° 0 mm 3 mps 736 mmHg 55%
    10:00 +10°C° 0 mm 4 mps 736 mmHg 47%
    11:00 +11°C° 0 mm 4 mps 735 mmHg 46%
    12:00 +11°C° 0 mm 4 mps 735 mmHg 44%
    13:00 +12°C° 0 mm 4 mps 734 mmHg 42%
    14:00 +12°C° 0 mm 4 mps 734 mmHg 43%
    15:00 +13°C° 0 mm 4 mps 733 mmHg 43%
    16:00 +13°C° 0 mm 4 mps 733 mmHg 44%
    17:00 +12°C° 0 mm 4 mps 733 mmHg 47%
    18:00 +10°C° 0 mm 4 mps 732 mmHg 50%
    19:00 +8°C° 0 mm 4 mps 732 mmHg 53%
    20:00 +8°C° 0 mm 4 mps 732 mmHg 53%
    21:00 +8°C° 0 mm 4 mps 732 mmHg 54%
    22:00 +8°C° 0 mm 4 mps 732 mmHg 55%
    23:00 +8°C° 0 mm 4 mps 732 mmHg 55%

    Tomorrow, 27 September, Thursday

    Time Temperature Precipitation Wind Pressure Humidity
    00:00 +8°C° 0 mm 4 mps 732 mmHg 55%
    01:00 +8°C° 0 mm 4 mps 732 mmHg 56%
    02:00 +8°C° 0 mm 4 mps 732 mmHg 56%
    03:00 +9°C° 0 mm 3 mps 731 mmHg 57%
    04:00 +9°C° 0 mm 3 mps 731 mmHg 58%
    05:00 +9°C° 0 mm 3 mps 731 mmHg 60%
    06:00 +9°C° 0 mm 3 mps 731 mmHg 61%
    07:00 +9°C° 0 mm 3 mps 731 mmHg 62%
    08:00 +11°C° 0 mm 3 mps 731 mmHg 61%
    09:00 +13°C° 0 mm 3 mps 732 mmHg 59%
    10:00 +15°C° 0 mm 4 mps 732 mmHg 57%
    11:00 +18°C° 0 mm 3 mps 732 mmHg 57%
    12:00 +19°C° 0 mm 3 mps 731 mmHg 56%
    13:00 +20°C° 0 mm 3 mps 731 mmHg 56%
    14:00 +20°C° 0 mm 3 mps 730 mmHg 57%
    15:00 +20°C° 0 mm 3 mps 730 mmHg 57%
    16:00 +20°C° 0 mm 3 mps 729 mmHg 58%
    17:00 +18°C° 0 mm 3 mps 729 mmHg 63%
    18:00 +16°C° 0 mm 2 mps 728 mmHg 68%
    19:00 +15°C° 0 mm 2 mps 728 mmHg 74%
    20:00 +14°C° 0 mm 2 mps 727 mmHg 74%
    21:00 +13°C° 0 mm 3 mps 727 mmHg 74%
    22:00 +13°C° 0 mm 3 mps 727 mmHg 74%
    23:00 +12°C° 0 mm 3 mps 726 mmHg 74%

    Day after tomorrow, 28 September, Friday

    Time Temperature Precipitation Wind Pressure Humidity
    00:00 +12°C° 0 mm 3 mps 726 mmHg 74%
    01:00 +12°C° 0 mm 3 mps 725 mmHg 75%
    02:00 +11°C° 0 mm 3 mps 725 mmHg 75%
    03:00 +11°C° 0 mm 3 mps 724 mmHg 74%
    04:00 +10°C° 0 mm 3 mps 724 mmHg 74%
    05:00 +10°C° 0 mm 3 mps 724 mmHg 73%
    06:00 +10°C° 0 mm 3 mps 724 mmHg 72%
    07:00 +10°C° 0 mm 2 mps 724 mmHg 71%
    08:00 +11°C° 0 mm 3 mps 725 mmHg 67%
    09:00 +13°C° 0 mm 3 mps 725 mmHg 63%
    10:00 +16°C° 0 mm 3 mps 725 mmHg 59%
    11:00 +15°C° 0 mm 4 mps 725 mmHg 60%
    12:00 +15°C° 0 mm 4 mps 725 mmHg 62%
    13:00 +15°C° 0 mm 4 mps 725 mmHg 64%
    14:00 +14°C° 0 mm 4 mps 725 mmHg 65%
    15:00 +14°C° 0 mm 4 mps 725 mmHg 66%
    16:00 +13°C° 0 mm 4 mps 725 mmHg 67%
    17:00 +12°C° 0 mm 3 mps 725 mmHg 68%
    18:00 +11°C° 0 mm 3 mps 725 mmHg 69%
    19:00 +9°C° 0 mm 2 mps 725 mmHg 71%
    20:00 +9°C° 0 mm 2 mps 726 mmHg 71%
    21:00 +8°C° 0 mm 2 mps 726 mmHg 71%
    22:00 +8°C° 0 mm 2 mps 726 mmHg 71%
    23:00 +7°C° 0 mm 2 mps 727 mmHg 72%

    29 September, Saturday

    Time Temperature Precipitation Wind Pressure Humidity
    00:00 +7°C° 0 mm 2 mps 727 mmHg 73%
    01:00 +7°C° 0 mm 2 mps 727 mmHg 73%
    02:00 +6°C° 0 mm 2 mps 727 mmHg 77%
    03:00 +5°C° 0 mm 2 mps 727 mmHg 80%
    04:00 +5°C° 0 mm 2 mps 727 mmHg 84%
    05:00 +5°C° 0 mm 2 mps 728 mmHg 81%
    06:00 +4°C° 0 mm 3 mps 728 mmHg 79%
    07:00 +4°C° 0 mm 3 mps 729 mmHg 76%
    08:00 +5°C° 0 mm 3 mps 729 mmHg 70%
    09:00 +8°C° 0 mm 3 mps 729 mmHg 63%
    10:00 +9°C° 0 mm 3 mps 730 mmHg 56%
    11:00 +10°C° 0 mm 3 mps 730 mmHg 53%
    12:00 +11°C° 0 mm 3 mps 730 mmHg 49%
    13:00 +11°C° 0 mm 3 mps 730 mmHg 46%
    14:00 +11°C° 0 mm 3 mps 730 mmHg 47%
    15:00 +11°C° 0 mm 3 mps 730 mmHg 47%
    16:00 +12°C° 0 mm 2 mps 730 mmHg 48%
    17:00 +9°C° 0 mm 2 mps 730 mmHg 54%
    18:00 +9°C° 0 mm 1 mps 730 mmHg 59%
    19:00 +7°C° 0 mm 1 mps 730 mmHg 65%
    20:00 +7°C° 0 mm 1 mps 730 mmHg 67%
    21:00 +6°C° 0 mm 1 mps 731 mmHg 68%
    22:00 +6°C° 0 mm 1 mps 731 mmHg 69%
    23:00 +6°C° 0 mm 1 mps 731 mmHg 70%

    30 September, Sunday

    Time Temperature Precipitation Wind Pressure Humidity
    00:00 +6°C° 0 mm 1 mps 730 mmHg 71%
    01:00 +5°C° 0 mm 1 mps 730 mmHg 72%
    02:00 +5°C° 0 mm 1 mps 730 mmHg 72%
    03:00 +5°C° 0 mm 1 mps 730 mmHg 72%
    04:00 +5°C° 0 mm 1 mps 729 mmHg 72%
    05:00 +5°C° 0 mm 1 mps 729 mmHg 70%
    06:00 +5°C° 0 mm 1 mps 729 mmHg 69%
    07:00 +6°C° 0 mm 1 mps 729 mmHg 67%
    08:00 +7°C° 0 mm 2 mps 729 mmHg 59%
    09:00 +9°C° 0 mm 2 mps 729 mmHg 51%
    10:00 +12°C° 0 mm 2 mps 729 mmHg 43%
    11:00 +12°C° 0 mm 3 mps 729 mmHg 41%
    12:00 +12°C° 0 mm 3 mps 728 mmHg 38%
    13:00 +13°C° 0 mm 3 mps 728 mmHg 36%
    14:00 +13°C° 0 mm 3 mps 727 mmHg 37%
    15:00 +13°C° 0 mm 3 mps 726 mmHg 39%
    16:00 +13°C° 0 mm 3 mps 725 mmHg 40%
    17:00 +11°C° 0 mm 3 mps 725 mmHg 45%
    18:00 +9°C° 0 mm 2 mps 725 mmHg 50%
    19:00 +7°C° 0 mm 2 mps 724 mmHg 56%
    20:00 +6°C° 0 mm 2 mps 724 mmHg 56%
    21:00 +6°C° 0 mm 2 mps 723 mmHg 57%
    22:00 +6°C° 0 mm 2 mps 723 mmHg 58%
    23:00 +5°C° 0 mm 2 mps 722 mmHg 58%

    1 October, Monday

    Time Temperature Precipitation Wind Pressure Humidity
    00:00 +5°C° 0 mm 2 mps 722 mmHg 59%
    01:00 +5°C° 0 mm 2 mps 721 mmHg 59%
    02:00 +5°C° 0 mm 2 mps 721 mmHg 62%
    03:00 +5°C° 0 mm 2 mps 720 mmHg 65%
    04:00 +5°C° 0 mm 2 mps 719 mmHg 68%
    05:00 +5°C° 0 mm 2 mps 719 mmHg 70%
    06:00 +5°C° 0 mm 2 mps 719 mmHg 72%
    07:00 +6°C° 0 mm 2 mps 718 mmHg 75%
    08:00 +8°C° 0 mm 3 mps 718 mmHg 68%
    09:00 +10°C° 0 mm 3 mps 718 mmHg 62%
    10:00 +13°C° 0 mm 4 mps 718 mmHg 55%
    11:00 +14°C° 0 mm 4 mps 718 mmHg 52%
    12:00 +15°C° 0 mm 4 mps 718 mmHg 49%
    13:00 +17°C° 0 mm 4 mps 718 mmHg 45%
    14:00 +16°C° 0 mm 3 mps 718 mmHg 47%
    15:00 +16°C° 0 mm 3 mps 717 mmHg 48%
    16:00 +16°C° 0 mm 3 mps 717 mmHg 49%
    17:00 +14°C° 0 mm 2 mps 717 mmHg 53%
    18:00 +12°C° 0 mm 2 mps 717 mmHg 57%
    19:00 +9°C° 0 mm 2 mps 718 mmHg 61%
    20:00 +9°C° 0 mm 2 mps 718 mmHg 62%
    21:00 +8°C° 0 mm 2 mps 718 mmHg 62%
    22:00 +8°C° 0 mm 2 mps 719 mmHg 63%
    23:00 +8°C° 0 mm 2 mps 719 mmHg 64%
    Show more